Weather History for EBBR - February, 2014

Change the Weather History Date:

Monday, February 10, 2014

  Actual Average Record
Temperature  
Mean Temperature 40 °F -  
Max Temperature 43 °F 45 °F - (-1)
Min Temperature 38 °F 35 °F - (-1)
Degree Days  
Heating Degree Days 24    
Moisture  
Dew Point 36 °F    
Average Humidity 81    
Maximum Humidity 93    
Minimum Humidity 61    
Precipitation  
Precipitation 0.01 in - - ()
Sea Level Pressure  
Sea Level Pressure 29.37 in    
Wind  
Wind Speed 7 mph ()    
Max Wind Speed 13 mph    
Max Gust Speed -    
Visibility 11.3 miles    
Events Rain    
Averages and records for this station are not official NWS values.
T = Trace of Precipitation, MM = Missing Value Source: Averaged Metar Reports

Daily Weather History Graph

Daily Weather History Graph

Search for Another Location

Airport or City:

Trip Planner

Search our weather history database for the weather conditions in past years. The results will help you decide how hot, cold, wet, or windy it might be!

Date:

Astronomy

Feb. 10, 2014 Rise Set
Actual Time 8:03 AM CET 5:49 PM CET
Civil Twilight 7:29 AM CET 6:23 PM CET
Nautical Twilight 6:50 AM CET 7:02 PM CET
Astronomical Twilight 6:12 AM CET 7:40 PM CET
Moon 1:53 PM CET (2/10) 4:56 AM CET (2/10)
Length of Visible Light 10h 54m
Length of Day
9h 45m
Waxing Gibbous, 82% of the Moon is Illuminated
Feb 10
Waxing Gibbous
Feb 15
Full
Feb 22
Last Quarter
Mar 1
New
Mar 8
First Quarter

Hourly Weather History & Observations

Time (CET) Temp. Windchill Dew Point Humidity Pressure Visibility Wind Dir Wind Speed Gust Speed Precip Events Conditions
12:00 AM 42 °F - 35 °F 69% 29.43 in 19 mi SSW 13.4 mph - -   Mostly Cloudy
12:20 AM 42.8 °F 36.2 °F 35.6 °F 76% 29.42 in - SSW 12.7 mph - N/A   Clear
12:50 AM 42.8 °F 37.5 °F 35.6 °F 76% 29.42 in - South 9.2 mph - N/A   Clear
1:00 AM 42 °F - 36 °F 71% 29.43 in 19 mi South 8.9 mph - -   Partly Cloudy
1:20 AM 41.0 °F 35.8 °F 35.6 °F 81% 29.39 in - South 8.1 mph - N/A   Clear
1:50 AM 41.0 °F 36.4 °F 35.6 °F 81% 29.39 in - South 6.9 mph - N/A   Clear
2:00 AM 40 °F - 36 °F 80% 29.41 in 19 mi South 6.7 mph - -   Mostly Cloudy
2:20 AM 39.2 °F 35.0 °F 35.6 °F 87% 29.39 in - SSE 5.8 mph - N/A   Clear
2:50 AM 39.2 °F 34.2 °F 35.6 °F 87% 29.39 in 6.2 mi SSE 6.9 mph - N/A   Scattered Clouds
3:00 AM 40 °F - 35 °F 78% 29.39 in 19 mi SSE 6.7 mph - -   Partly Cloudy
3:20 AM 39.2 °F 32.5 °F 35.6 °F 87% 29.36 in 6.2 mi SSE 10.4 mph - N/A   Partly Cloudy
3:50 AM 39.2 °F 33.6 °F 35.6 °F 87% 29.36 in 6.2 mi SSE 8.1 mph - N/A   Partly Cloudy
4:00 AM 40 °F - 35 °F 77% 29.37 in 19 mi SSE 8.9 mph - -   Scattered Clouds
4:20 AM 39.2 °F 33.6 °F 35.6 °F 87% 29.33 in - SSE 8.1 mph - N/A   Clear
4:50 AM 39.2 °F 35.0 °F 35.6 °F 87% 29.33 in - SSE 5.8 mph - N/A   Clear
5:00 AM 39 °F - 35 °F 80% 29.35 in 19 mi SSE 6.7 mph - -   Partly Cloudy
5:20 AM 39.2 °F 33.0 °F 35.6 °F 87% 29.33 in - SSE 9.2 mph - N/A   Clear
5:50 AM 39.2 °F 35.0 °F 33.8 °F 81% 29.33 in - SSE 5.8 mph - N/A   Clear
6:00 AM 39 °F - 34 °F 76% 29.34 in 19 mi SSE 6.7 mph - -   Mostly Cloudy
6:20 AM 39.2 °F 35.0 °F 33.8 °F 81% 29.33 in - SSE 5.8 mph - N/A   Clear
6:50 AM 39.2 °F 35.0 °F 33.8 °F 81% 29.33 in - SE 5.8 mph - N/A   Clear
7:00 AM 39 °F - 34 °F 75% 29.35 in 19 mi SE 6.7 mph - -   Scattered Clouds
7:20 AM 39.2 °F 33.6 °F 33.8 °F 81% 29.33 in - SSE 8.1 mph - N/A   Clear
7:50 AM 39.2 °F 33.6 °F 33.8 °F 81% 29.33 in - SSE 8.1 mph - N/A   Clear
8:00 AM 39 °F - 33 °F 72% 29.36 in 19 mi SSE 6.7 mph - -   Mostly Cloudy
8:20 AM 39.2 °F 34.2 °F 32.0 °F 75% 29.36 in - SSE 6.9 mph - N/A   Clear
8:50 AM 39.2 °F 32.5 °F 33.8 °F 81% 29.36 in - SSE 10.4 mph - N/A   Clear
9:00 AM 40 °F - 33 °F 67% 29.37 in 19 mi SSE 11.2 mph - -   Partly Cloudy
9:20 AM 41.0 °F 33.9 °F 33.8 °F 76% 29.36 in - SSE 12.7 mph - N/A   Clear
9:50 AM 41.0 °F 34.7 °F 35.6 °F 81% 29.36 in - SSE 10.4 mph - N/A   Clear
10:00 AM 40 °F - 36 °F 80% 29.37 in 19 mi SSE 11.2 mph - -   Partly Cloudy
10:20 AM 41.0 °F 38.0 °F 35.6 °F 81% 29.33 in - SE 4.6 mph - N/A   Clear
10:50 AM 41.0 °F - 35.6 °F 81% 29.33 in - SE 2.3 mph - N/A   Clear
11:00 AM 41 °F - 36 °F 75% 29.35 in 19 mi SE 2.2 mph - -   Mostly Cloudy
11:20 AM 41.0 °F - 35.6 °F 81% 29.33 in - Variable 2.3 mph - N/A   Clear
11:50 AM 41.0 °F 39.0 °F 35.6 °F 81% 29.33 in - East 3.5 mph - N/A   Clear
12:00 PM 41 °F - 36 °F 77% 29.36 in 19 mi East 4.5 mph - -   Mostly Cloudy
12:20 PM 41.0 °F 37.1 °F 37.4 °F 87% 29.33 in 6.2 mi NE 5.8 mph - N/A   Mostly Cloudy
12:50 PM 41.0 °F 37.1 °F 35.6 °F 81% 29.33 in 6.2 mi ENE 5.8 mph - N/A   Partly Cloudy
1:00 PM 41 °F - 36 °F 76% 29.34 in 19 mi ENE 4.5 mph - -   Overcast
1:20 PM 42.8 °F - 35.6 °F 76% 29.33 in 6.2 mi Variable 2.3 mph - N/A   Partly Cloudy
1:50 PM 42.8 °F - 35.6 °F 76% 29.33 in 6.2 mi NE 2.3 mph - N/A   Partly Cloudy
2:00 PM 43 °F - 36 °F 69% 29.34 in 19 mi NE 2.2 mph - -   Mostly Cloudy
2:20 PM 42.8 °F - 35.6 °F 76% 29.33 in 6.2 mi Variable 2.3 mph - N/A   Partly Cloudy
2:50 PM 42.8 °F - 35.6 °F 76% 29.33 in 6.2 mi Variable 2.3 mph - N/A   Partly Cloudy
3:00 PM 44 °F - 35 °F 61% 29.34 in 19 mi ENE 2.2 mph - -   Overcast
3:20 PM 44.6 °F - 33.8 °F 66% 29.33 in 6.2 mi Calm Calm - N/A   Mostly Cloudy
3:50 PM 42.8 °F - 37.4 °F 81% 29.33 in 6.2 mi South 2.3 mph - N/A Rain Light Rain
4:00 PM 43 °F - 37 °F 71% 29.35 in 19 mi South 2.2 mph - - Rain Light Rain
4:20 PM 42.8 °F 40.1 °F 37.4 °F 81% 29.33 in 6.2 mi SSW 4.6 mph - N/A Rain Light Rain
4:50 PM 42.8 °F - 39.2 °F 87% 29.33 in 6.2 mi SW 2.3 mph - N/A Rain Light Rain
5:00 PM 42 °F - 38 °F 82% 29.36 in 12 mi SW 2.2 mph - - Rain Light Rain
5:20 PM 41.0 °F 39.0 °F 37.4 °F 87% 29.36 in 6.2 mi SW 3.5 mph - N/A Rain Light Rain
5:50 PM 41.0 °F 38.0 °F 37.4 °F 87% 29.36 in 6.2 mi West 4.6 mph - N/A Rain Light Rain
6:00 PM 41 °F - 37 °F 80% 29.38 in 12 mi West 4.5 mph - - Rain Light Rain
6:20 PM 41.0 °F 38.0 °F 37.4 °F 87% 29.39 in 6.2 mi West 4.6 mph - N/A Rain Light Rain
6:50 PM 41.0 °F 39.0 °F 37.4 °F 87% 29.39 in 6.2 mi WSW 3.5 mph - N/A   Mostly Cloudy
7:00 PM 40 °F - 37 °F 87% 29.41 in 12 mi WSW 4.5 mph - - Rain Light Rain
7:20 PM 41.0 °F 39.0 °F 37.4 °F 87% 29.42 in 6.2 mi WSW 3.5 mph - N/A   Mostly Cloudy
7:50 PM 39.2 °F 35.9 °F 35.6 °F 87% 29.42 in 6.2 mi WSW 4.6 mph - N/A   Partly Cloudy
8:00 PM 40 °F - 36 °F 81% 29.43 in 12 mi WSW 4.5 mph - -   Scattered Clouds
8:20 PM 39.2 °F 35.0 °F 35.6 °F 87% 29.42 in - SW 5.8 mph - N/A   Clear
8:50 PM 39.2 °F 35.0 °F 37.4 °F 93% 29.42 in 6.2 mi SW 5.8 mph - N/A   Scattered Clouds
9:00 PM 40 °F - 37 °F 84% 29.44 in 12 mi SW 6.7 mph - -   Mostly Cloudy
9:20 PM 41.0 °F 36.4 °F 37.4 °F 87% 29.44 in 6.2 mi SW 6.9 mph - N/A Rain Light Rain
9:50 PM 41.0 °F 37.1 °F 37.4 °F 87% 29.44 in 6.2 mi SSW 5.8 mph - N/A Rain Light Rain
10:00 PM 40 °F - 37 °F 83% 29.46 in 9 mi SSW 6.7 mph - - Rain Light Rain
10:20 PM 41.0 °F 36.4 °F 37.4 °F 87% 29.44 in 6.2 mi SW 6.9 mph - N/A   Mostly Cloudy
10:50 PM 41.0 °F 35.2 °F 37.4 °F 87% 29.44 in 6.2 mi SW 9.2 mph - N/A   Scattered Clouds
11:00 PM 41 °F - 37 °F 81% 29.48 in 12 mi SW 8.9 mph - - Rain Light Rain
11:20 PM 41.0 °F 35.2 °F 37.4 °F 87% 29.47 in 6.2 mi SSW 9.2 mph - N/A Rain Light Rain
11:50 PM 41.0 °F 33.9 °F 37.4 °F 87% 29.47 in 6.2 mi SW 12.7 mph - N/A   Partly Cloudy